{"data":{"norad_id":55246,"intl_designator":"2022-144G","name":"LINUSS1","alt_names":[],"object_type":"PAYLOAD","status":"ACTIVE","operator":null,"country":"US","launch_date":"2022-11-01","launch_site_code":"AFETR","launch_vehicle":null,"mission":null,"orbit_class":"UNKNOWN","rcs_meters":null,"size_class":null,"mass_kg":null,"dimensions":null,"purposes":[],"wikipedia_slug":null,"has_3d_model":false,"image_url":null,"decayed_at":null,"tle_current":{"epoch":"2026-05-25T00:14:08.169792Z","epoch_age_seconds":70346,"freshness":"FRESH","line1":"1 55246U 22144G   26145.00981678 -.00000234  00000+0  00000+0 0  9990","line2":"2 55246   5.3268  64.3557 0011362 305.9783 217.8992  0.99057257 11437","mean_motion":0.99057257,"eccentricity":0.0011362,"inclination_deg":5.3268,"raan_deg":64.3557,"arg_perigee_deg":305.9783,"mean_anomaly_deg":217.8992,"bstar":0,"rev_number":1143,"period_min":1453.7046992933,"perigee_km":36082.246942605,"apogee_km":36178.84367228,"semimajor_km":42508.682307442,"source":"CELESTRAK","updated_at":"2026-05-25T13:37:58.877950Z"}}}